Voltar ao catálogo

ORBCOMM FM 33

AtivoComunicaçõesLEO
NORAD 25983·PAYLOAD·🇺🇸 United States

Lançado Dec 4, 1999 de Cape Canaveral Space Force Station

Loading…

Próximas Passagens (próximas 24 horas)

TLE

AtualizadoSource: Space-Track

Época: Sep 14, 2026, 14:19 UTC

1 25983U 99065D   26257.59721741  .00000580  00000-0  22245-3 0  9995
2 25983  45.0302 356.3870 0010097 195.0023 165.0528 14.41101500401595

Acompanhe ORBCOMM FM 33 em tempo real com AllMySat

Download on the App Store